Regional Weather Roundup
Issued by NWS

Home | Current Version | Previous Version | Graphics & Text | Print | Product List | Glossary Off
Versions: 1 2 3 4 5 6 7 8 9 10 11 12 13 14 15 16 17 18 19 20 21 22 23 24 25 26 27 28 29 30 31 32 33 34 35 36 37 38 39 40 41 42 43 44 45 46 47 48 49 50

000
ASUS43 KDTX 291101
RWRMI
MICHIGAN HOURLY REGIONAL WEATHER ROUNDUP
NATIONAL WEATHER SERVICE DETROIT/PONTIAC MI
700 AM EDT FRI MAY 29 2015

NOTE: "FAIR" INDICATES FEW OR NO CLOUDS BELOW 12,000 FEET WITH NO
SIGNIFICANT WEATHER AND/OR OBSTRUCTION TO VISIBILITY.

MIZ047>049-052>055-059>063-066>070-074>076-081>083-291200-
SOUTHEAST LOWER MICHIGAN

CITY           SKY/WX    TMP DP  RH WIND       PRES   REMARKS
ADRIAN         CLEAR     61  57  87 E5        30.15F
ALMA           MOCLDY    61  55  82 S3        30.11S
ANN ARBOR      CLEAR     58  54  86 CALM      30.15F
BAD AXE        PTCLDY    61  50  68 S7        30.16F
CARO           MOCLDY    63  54  72 SE8       30.14F
DETROIT CITY   MOCLDY    63  54  72 SE5       30.16F
DETROIT        CLOUDY    64  55  72 CALM      30.16F
FLINT          PTCLDY    64  53  67 S7        30.14F
GROSSE ILE     CLEAR     66  59  77 SE3       30.15S
HILLSDALE      CLEAR     63  60  90 SE6       30.14F
HOWELL         PTCLDY    62  53  73 SE7       30.15S

CITY           SKY/WX    TMP DP  RH WIND       PRES   REMARKS
JACKSON        PTCLDY    60  55  83 SE6       30.14F
LAMBERTVILLE   CLEAR     61  57  88 CALM      30.15F
LANSING        PTCLDY    63  54  72 SE10      30.13S
LAPEER         CLOUDY    64  53  66 S3        30.17S
MASON          PTCLDY    59  54  82 SE6       30.13F
MONROE         CLEAR     64  61  88 E5        30.14F
MT. CLEMENS    MOCLDY    61  56  85 E2        30.15S
PONTIAC        PTCLDY    63  54  72 SE5       30.15F
PORT HOPE        N/A     64  50  60 S9        30.14F
PORT HURON     PTCLDY    59  52  77 CALM      30.18S
TRI CITIES     MOCLDY    65  52  62 S13       30.12F
MIDLAND        MOCLDY    64  51  62 S5        30.11S
TROY           CLOUDY    63  57  81 CALM      30.18F
SAGINAW HB     MOCLDY    63  52  67 SE8       30.12S
$$
MIZ043>046-050>051-056>058-064>065-071>073-077>080-291200-
SOUTHWEST LOWER MICHIGAN

CITY           SKY/WX    TMP DP  RH WIND       PRES   REMARKS
BATTLE CREEK   PTCLDY    64  57  78 SE6       30.12F
BENTON HARBOR  MOCLDY    64  59  83 SE8       30.06
BIG RAPIDS     CLOUDY    61  53  73 S5        30.08F
COLDWATER      CLEAR     61  57  86 SE7       30.12F
FREMONT        MOCLDY    63  56  77 CALM      30.06S
HOLLAND        MOCLDY    65  57  75 SE8       30.07F
GRAND RAPIDS   MOCLDY    63  56  78 SE9       30.09F
IONIA          FAIR      62  55  77 S7        30.10F
KALAMAZOO      PTCLDY    64  56  75 SE3       30.11F
LUDINGTON      CLOUDY    66  56  71 SE6       30.04S
MARSHALL       CLEAR     63  57  82 SE5       30.11F
MOUNT PLEASANT CLOUDY    58  55  88 CALM      30.10S
MUSKEGON       MOCLDY    66  57  72 SE9       30.05F
SOUTH HAVEN    MOCLDY    64  58  79 SE6       30.06F
$$
MIZ016>042-291200-
NORTHERN LOWER MICHIGAN

CITY           SKY/WX    TMP DP  RH WIND       PRES   REMARKS
ALPENA         MOCLDY    60  54  80 S6        30.13S
BEAVER ISLAND  CLOUDY    61  56  82 SE7       30.04F
BELLAIRE       CLOUDY    66  54  65 SW5       30.06F
CADILLAC       CLOUDY    65  55  71 S10       30.08F
CHARLEVOIX     CLOUDY    62  57  84 SE7       30.08F
FRANKFORT      CLOUDY    69  53  57 S10G17    30.03F
GAYLORD        MOCLDY    62  54  74 S9        30.10F
GRAYLING       MOCLDY    59  54  82 SE3       30.11F
HARBOR SPRINGS MOCLDY    61  56  83 CALM      30.07F
HOUGHTON LAKE  CLOUDY    60  53  77 E5        30.11F
MANISTEE       CLOUDY    63  54  72 SE6       30.04F
OSCODA         PTCLDY    57  55  90 CALM      30.14S
PELLSTON       MOCLDY    58  56  93 SE3       30.08F
ROGERS CITY    MOCLDY    63  56  79 S13       30.11F
TRAVERSE CITY  CLOUDY    63  55  75 W3        30.04F
$$
MIZ007>008-015-291200-
EASTERN UPPER MICHIGAN

CITY           SKY/WX    TMP DP  RH WIND       PRES   REMARKS
KINROSS        MOCLDY    52  52 100 SE5       30.08S
MACKINAC ISLAN CLOUDY    56  55  94 SE5       30.07F
NEWBERRY       MOCLDY    57  55  91 S9        30.04S
S. S. MARIE    MOCLDY    53  50  89 E5        30.08F
$$
MIZ004>006-011>014-085-291200-
CENTRAL UPPER MICHIGAN

CITY           SKY/WX    TMP DP  RH WIND       PRES   REMARKS
MANISTIQUE     CLOUDY    52  50  95 SE5       30.03S FOG
ESCANABA       MOCLDY    55  52  88 SE3       29.99F
MENOMINEE      CLOUDY    64  54  68 S9        29.98S
SAWYER-GWINN   CLEAR     57  52  82 S12       29.98F
$$
MIZ001>003-009>011-084-291200-
WESTERN UPPER MICHIGAN

CITY           SKY/WX    TMP DP  RH WIND       PRES   REMARKS
IRON MOUNTAIN  CLOUDY    59  55  87 SE5       29.97F
HOUGHTON       CLOUDY    61  55  81 SW9       29.91F
COPPER HARBOR    N/A     60  53  77 SW9       29.90F
IRONWOOD       CLOUDY    63  54  72 SW9       29.89S
$$

ABBREVIATIONS USED IN REMARKS
   TC - TEMPERATURE IN CELSIUS
  WCI - WIND CHILL INDEX
   HX - HEAT INDEX
  VSB - VISIBILITY




USA.gov is the U.S. government's official web portal to all federal, state and local government web resources and services.